[[{"header":{"parameterUnit":"m.s-1","parameterCategory":1,"la1":30.2991,"la2":30.254,"lo1":-89.0895,"lo2":-89.0444,"dy":0.0017,"dx":0.0017,"nx":28,"ny":28,"refTime":"2025-12-03T03:00:00:Z","depth":0,"parameterNumber":2,"parameterNumberName":"U-component_of_WINDS"},"data":[0,0,0,0,0,0,0,0,0,0,0,0,0,0,0,0,0,0,0,0,0,0,0,0,0,0,0,0,0,0,0,0,0,0,0,0,0,0,0,0,0,0,0,0,0,0,0,0,0,0,0,0,0,0,0,0,0,0,-6.4493,-6.4494,0,-6.4616,-6.4617,-6.4618,-6.453,-6.4526,-6.4522,-6.4519,-6.4641,-6.4647,-6.4654,0,0,0,0,0,0,0,0,0,0,0,0,0,-6.4176,-6.4182,-6.4492,-6.4494,-6.4496,-6.4615,-6.4617,-6.4619,-6.4531,-6.4526,-6.4521,-6.4517,-6.4638,-6.4646,-6.4655,0,0,0,0,0,0,0,0,0,0,0,0,0,-6.4308,-6.4184,-6.4492,-6.4466,-6.4465,-6.4615,-6.4617,-6.4619,-6.4532,-6.4526,-6.452,-6.4515,-6.4636,-6.4646,-6.4656,-6.4837,0,0,-6.4687,-6.4692,0,0,0,0,0,0,0,0,-6.43,-6.4319,-6.4468,-6.4468,-6.4467,-6.4552,-6.455,-6.4692,-6.4533,-6.4506,-6.4518,-6.4512,-6.4615,-6.4627,-6.4663,-6.4842,-6.4848,-6.4688,-6.4695,-6.4699,-6.4702,0,0,0,0,0,0,0,-6.4291,-6.4314,-6.4541,-6.4471,-6.447,-6.4447,-6.4459,-6.4577,-6.4592,-6.4508,-6.4502,-6.4518,-6.4614,-6.4653,-6.4665,-6.4849,-6.4688,-6.4697,-6.4704,-6.4708,-6.5182,-6.5188,0,0,0,0,0,0,-6.4285,-6.4307,-6.4537,-6.4545,-6.4368,-6.4457,-6.4471,-6.453,-6.4591,-6.4594,-6.4523,-6.4514,-6.4638,-6.4653,-6.4669,-6.4885,-6.4699,-6.4709,-6.4714,-6.5176,-6.5184,-6.5191,0,0,0,0,0,0,-6.4279,-6.4307,-6.4532,-6.4424,-6.4451,-6.4469,-6.4536,-6.4536,-6.4575,-6.4602,-6.4604,-6.4561,-6.4634,-6.4654,-6.4796,-6.4888,-6.4713,-6.4723,-6.5168,-6.5178,-6.5187,-6.5317,0,0,0,0,0,0,-6.427,-6.4305,-6.4375,-6.4426,-6.4457,-6.4659,-6.4542,-6.4543,-6.4594,-6.4582,-6.4638,-6.4641,-6.4631,-6.4781,-6.4806,-6.4899,-6.4731,-6.516,-6.5173,-6.5184,-6.5305,-6.533,-6.5352,0,0,0,0,0,-6.4259,-6.4406,-6.4379,-6.4408,-6.4546,-6.4664,-6.4682,-6.4669,-6.4601,-6.4671,-6.4688,-6.4639,-6.4873,-6.4796,-6.4824,-6.4921,-6.5154,-6.5169,-6.5183,-6.5295,-6.5325,-6.5351,0,0,0,0,0,0,-6.4364,-6.4413,-6.4383,-6.4552,-6.4605,-6.4649,-6.4737,-6.4702,-6.4774,-6.4761,-6.474,-6.4753,-6.4901,-6.4924,-6.4838,-6.5098,-6.5003,-6.5023,-6.5078,-6.5108,-6.5131,-6.5122,-6.4739,0,0,0,0,0,-6.4407,-6.4501,-6.4537,-6.4683,-6.4711,-6.472,-6.4771,-6.4756,-6.481,-6.4831,-6.4859,-6.4911,-6.4996,-6.5053,-6.5133,-6.5307,-6.5318,-6.5388,-6.5411,-6.543,-6.5449,-6.5542,-6.5573,-6.5238,-6.5238,-6.5238,0,0,-6.4497,-6.4535,-6.4595,-6.4705,-6.4744,-6.484,-6.4739,-6.4845,-6.4916,-6.4847,-6.4983,-6.5004,-6.5061,-6.522,-6.5291,-6.5244,-6.5543,-6.5449,-6.5464,-6.5472,-6.556,-6.5592,-6.562,-6.5248,-6.5246,-6.5244,0,0,-6.4709,-6.4748,-6.4873,-6.4914,-6.4976,-6.498,-6.501,-6.5061,-6.5073,-6.5209,-6.5159,-6.5241,-6.5388,-6.5431,-6.5472,-6.5699,-6.5657,-6.5726,-6.5849,-6.594,-6.5966,-6.599,-6.6071,-6.61,-6.5744,-6.5744,-6.5744,0,-6.4813,-6.4957,-6.4941,-6.5052,-6.5101,-6.5043,-6.5169,-6.5209,-6.5293,-6.5327,-6.5273,-6.5457,-6.5491,-6.5659,-6.5714,-6.5749,-6.5782,-6.572,-6.5964,-6.5987,-6.6009,-6.6086,-6.6116,-6.5752,-6.5751,-6.575,-6.5749,0,-6.5081,-6.5182,-6.5275,-6.5359,-6.5418,-6.5536,-6.5536,-6.5597,-6.5577,-6.5587,-6.5725,-6.5764,-6.585,-6.5889,-6.5869,-6.6054,-6.6022,-6.5967,-6.5871,-6.6049,-6.6121,-6.615,-6.5763,-6.5761,-6.5758,-6.5756,0,0,-6.5365,-6.5438,-6.5472,-6.551,-6.5572,-6.5649,-6.5763,-6.5848,-6.5902,-6.596,-6.6055,-6.618,-6.6129,-6.6175,-6.616,-6.624,-6.6417,-6.6174,-6.6175,-6.6218,-6.6622,-6.6664,-6.6698,-6.6389,-6.6394,-6.6399,-6.6617,0,-6.5581,-6.5782,-6.577,-6.5957,-6.605,-6.5995,-6.6094,-6.6142,-6.6154,-6.6233,-6.6244,-6.6334,-6.626,-6.6287,-6.6364,-6.638,-6.6498,-6.6363,-6.6475,-6.6479,-6.6464,-6.6736,-6.6781,-6.6986,-6.6645,-6.665,-6.6653,0,-6.5861,-6.5931,-6.6128,-6.6177,-6.6215,-6.6304,-6.6381,-6.6458,-6.651,-6.6513,-6.6565,-6.6536,-6.6648,-6.6549,-6.6703,-6.6612,-6.6656,-6.6671,-6.6678,-6.6689,-6.6578,-6.6754,-6.705,-6.7081,-6.6697,-6.6694,-6.6691,0,-6.6049,-6.6192,-6.6328,-6.6362,-6.6421,-6.6485,-6.6513,-6.656,-6.6612,-6.6678,-6.6711,-6.679,-6.6833,-6.6893,-6.6885,-6.6814,-6.7043,-6.6942,-6.7047,-6.7048,-6.7099,-6.7096,-6.7407,-6.7127,-6.7126,-6.7126,-6.7125,0,-6.6292,-6.6415,-6.6414,-6.6498,-6.6633,-6.6617,-6.6751,-6.677,-6.6813,-6.6898,-6.6855,-6.6936,-6.692,-6.7,-6.6995,-6.7123,-6.7143,-6.7147,-6.7144,-6.7152,-6.7151,-6.7181,-6.7167,-6.7134,-6.7132,-6.713,-6.7129,0,-6.6525,-6.653,-6.6675,-6.6719,-6.6733,-6.6831,-6.6868,-6.6947,-6.6954,-6.7063,-6.7087,-6.7099,-6.7191,-6.7189,-6.7293,-6.7289,-6.7447,-6.7427,-6.743,-6.7426,-6.7531,-6.7522,-6.7873,-6.7918,-6.7608,-6.7611,-6.7614,0,-6.6681,-6.6774,-6.6829,-6.6884,-6.6916,-6.7005,-6.7058,-6.7044,-6.7101,-6.7167,-6.7238,-6.7326,-6.7396,-6.7545,-6.7562,-6.7641,-6.7623,-6.774,-6.7634,-6.7639,-6.7625,-6.762,-6.7629,-6.7761,-6.7765,-6.7768,-6.777,0,-6.6957,-6.6954,-6.7033,-6.7113,-6.7178,-6.724,-6.7296,-6.7343,-6.7336,-6.7401,-6.7495,-6.755,-6.7656,-6.7744,-6.782,-6.7845,-6.7807,-6.7803,-6.7831,-6.784,-6.7838,-6.7841,-6.7487,-6.7795,-6.7793,-6.7791,-6.779,-6.7789,-6.7156,-6.7237,-6.7288,-6.7377,-6.7418,-6.7472,-6.7548,-6.7565,-6.7644,-6.7731,-6.7717,-6.7822,-6.787,-6.7968,-6.8001,-6.8082,-6.804,-6.8081,-6.8092,-6.8102,-6.8114,-6.7825,-6.8095,-6.8094,-6.8094,-6.8093,-6.8093,0,-6.743,-6.746,-6.7542,-6.7623,-6.7693,-6.7651,-6.7711,-6.7772,-6.7866,-6.7914,-6.7984,-6.8092,-6.8176,-6.8199,-6.828,-6.834,-6.8324,-6.8362,-6.8357,-6.8364,-6.8147,-6.8114,-6.8373,-6.8373,-6.8373,-6.8373,-6.8373,-6.8373,-6.7581,-6.7715,-6.7718,-6.787,-6.7899,-6.8003,-6.8041,-6.8089,-6.8128,-6.8251,-6.8321,-6.8336,-6.8374,-6.8457,-6.8532,-6.8536,-6.8568,-6.8613,-6.861,-6.8407,-6.8379,-6.8353,-6.8322,-6.862,-6.862,-6.882,-6.8822,-6.8824]},{"header":{"parameterUnit":"m.s-1","parameterCategory":1,"la1":30.2991,"la2":30.254,"lo1":-89.0895,"lo2":-89.0444,"dy":0.0017,"dx":0.0017,"nx":28,"ny":28,"refTime":"2025-12-03T03:00:00:Z","depth":0,"parameterNumber":3,"parameterNumberName":"V-component_of_WINDS"},"data":[0,0,0,0,0,0,0,0,0,0,0,0,0,0,0,0,0,0,0,0,0,0,0,0,0,0,0,0,0,0,0,0,0,0,0,0,0,0,0,0,0,0,0,0,0,0,0,0,0,0,0,0,0,0,0,0,0,0,-6.3249,-6.325,0,-6.3284,-6.3285,-6.3285,-6.3205,-6.3202,-6.32,-6.3198,-6.323,-6.3233,-6.3237,0,0,0,0,0,0,0,0,0,0,0,0,0,-6.3108,-6.3111,-6.3249,-6.325,-6.325,-6.3284,-6.3285,-6.3285,-6.3205,-6.3202,-6.3199,-6.3196,-6.3229,-6.3233,-6.3237,0,0,0,0,0,0,0,0,0,0,0,0,0,-6.3159,-6.3112,-6.3249,-6.3214,-6.3212,-6.3284,-6.3285,-6.3285,-6.3206,-6.3202,-6.3198,-6.3195,-6.3228,-6.3233,-6.3237,-6.3344,0,0,-6.3252,-6.3254,0,0,0,0,0,0,0,0,-6.3156,-6.3164,-6.3219,-6.3217,-6.3214,-6.3236,-6.3247,-6.3305,-6.3207,-6.3208,-6.3197,-6.3193,-6.3235,-6.3239,-6.3254,-6.3346,-6.3347,-6.3253,-6.3256,-6.3258,-6.3259,0,0,0,0,0,0,0,-6.3153,-6.3162,-6.3263,-6.322,-6.3217,-6.3196,-6.3199,-6.3258,-6.3243,-6.3208,-6.3202,-6.3208,-6.3233,-6.325,-6.3254,-6.3348,-6.3253,-6.3257,-6.326,-6.3262,-6.3526,-6.353,0,0,0,0,0,0,-6.3154,-6.316,-6.3262,-6.3264,-6.3175,-6.3201,-6.3205,-6.3233,-6.3242,-6.3239,-6.3211,-6.3204,-6.3243,-6.3249,-6.3255,-6.3379,-6.3258,-6.3262,-6.3265,-6.3522,-6.3527,-6.3531,0,0,0,0,0,0,-6.3152,-6.3164,-6.326,-6.321,-6.3221,-6.3208,-6.324,-6.3236,-6.3252,-6.3244,-6.3241,-6.3231,-6.324,-6.3248,-6.3322,-6.3379,-6.3265,-6.3269,-6.3517,-6.3524,-6.3529,-6.3629,0,0,0,0,0,0,-6.3148,-6.3164,-6.3205,-6.3212,-6.3224,-6.3329,-6.3244,-6.3239,-6.3261,-6.3252,-6.3262,-6.326,-6.3238,-6.3316,-6.3327,-6.3384,-6.3273,-6.3512,-6.352,-6.3527,-6.362,-6.3638,-6.3652,0,0,0,0,0,-6.3143,-6.3232,-6.3208,-6.3221,-6.3276,-6.3332,-6.3339,-6.3313,-6.3266,-6.3307,-6.3301,-6.3259,-6.3371,-6.3324,-6.3336,-6.3395,-6.3508,-6.3518,-6.3527,-6.3613,-6.3634,-6.3652,0,0,0,0,0,0,-6.3231,-6.3232,-6.3206,-6.3299,-6.3316,-6.3318,-6.3369,-6.3336,-6.3366,-6.3356,-6.3322,-6.3325,-6.3405,-6.3407,-6.3355,-6.3498,-6.3432,-6.3444,-6.3493,-6.3513,-6.3529,-6.3526,-6.3277,0,0,0,0,0,-6.3261,-6.3308,-6.3306,-6.3389,-6.3399,-6.3383,-6.3406,-6.3385,-6.3401,-6.3407,-6.3407,-6.3423,-6.3461,-6.3488,-6.3523,-6.3621,-6.362,-6.3667,-6.3683,-6.3696,-6.3707,-6.3757,-6.3777,-6.3562,-6.3562,-6.3562,0,0,-6.3324,-6.333,-6.3362,-6.3406,-6.3417,-6.3465,-6.3389,-6.3443,-6.3478,-6.3415,-6.3485,-6.3485,-6.3501,-6.3587,-6.3625,-6.3591,-6.3766,-6.3708,-6.3719,-6.3722,-6.3769,-6.3789,-6.3807,-6.3568,-6.3567,-6.3566,0,0,-6.3463,-6.3473,-6.3542,-6.3555,-6.3572,-6.3561,-6.3578,-6.3585,-6.3583,-6.3653,-6.3606,-6.3646,-6.3714,-6.3726,-6.3742,-6.3884,-6.3846,-6.3897,-6.398,-6.4029,-6.4046,-6.4061,-6.411,-6.4128,-6.3907,-6.3908,-6.3908,0,-6.3538,-6.3609,-6.3582,-6.3639,-6.3659,-6.3605,-6.3674,-6.3687,-6.3715,-6.3729,-6.3691,-6.3774,-6.3781,-6.3868,-6.3903,-6.3918,-6.3934,-6.3895,-6.4046,-6.406,-6.4074,-6.412,-6.4139,-6.3913,-6.3913,-6.3912,-6.3912,0,-6.37,-6.375,-6.3804,-6.3833,-6.3859,-6.3922,-6.3902,-6.3931,-6.3908,-6.39,-6.397,-6.3977,-6.4011,-6.4031,-6.4008,-6.4115,-6.4093,-6.4052,-6.3984,-6.4101,-6.4144,-6.4161,-6.3922,-6.392,-6.3918,-6.3917,0,0,-6.3895,-6.3907,-6.3927,-6.3939,-6.3954,-6.3991,-6.4051,-6.4086,-6.4111,-6.4132,-6.4179,-6.4238,-6.4199,-6.4216,-6.4194,-6.4238,-6.4348,-6.419,-6.419,-6.4218,-6.4464,-6.4494,-6.4515,-6.4324,-6.4327,-6.433,-6.4462,0,-6.403,-6.4134,-6.411,-6.4211,-6.4256,-6.4205,-6.4257,-6.4271,-6.4265,-6.4301,-6.4294,-6.4335,-6.4282,-6.4291,-6.4333,-6.4326,-6.4397,-6.4317,-6.4366,-6.4368,-6.4362,-6.4538,-6.457,-6.4695,-6.4479,-6.4482,-6.4484,0,-6.4203,-6.423,-6.4336,-6.4343,-6.4361,-6.4408,-6.4437,-6.4473,-6.4487,-6.4479,-6.4499,-6.4468,-6.4525,-6.4458,-6.4535,-6.4481,-6.45,-6.45,-6.4504,-6.4506,-6.4432,-6.4544,-6.4735,-6.4753,-6.451,-6.4508,-6.4506,0,-6.4331,-6.4396,-6.4467,-6.4479,-6.4489,-6.4522,-6.4528,-6.4538,-6.456,-6.4586,-6.4599,-6.4631,-6.4648,-6.4672,-6.465,-6.4604,-6.473,-6.4662,-6.4724,-6.4725,-6.4751,-6.475,-6.4947,-6.4767,-6.4767,-6.4766,-6.4766,0,-6.4484,-6.4551,-6.4525,-6.4568,-6.464,-6.4612,-6.4684,-6.4683,-6.4693,-6.4734,-6.4693,-6.4732,-6.4701,-6.4738,-6.4721,-6.4786,-6.4795,-6.4789,-6.4783,-6.4792,-6.4793,-6.4803,-6.4793,-6.4771,-6.477,-6.4769,-6.4768,0,-6.464,-6.4626,-6.47,-6.4703,-6.4705,-6.4758,-6.476,-6.48,-6.4791,-6.4844,-6.4855,-6.4841,-6.4881,-6.4862,-6.4905,-6.4893,-6.4977,-6.496,-6.4972,-6.4967,-6.503,-6.5023,-6.5239,-6.5265,-6.507,-6.5072,-6.5073,0,-6.4738,-6.4788,-6.4797,-6.4822,-6.4831,-6.4872,-6.4894,-6.4868,-6.4892,-6.4912,-6.4949,-6.4986,-6.5014,-6.5081,-6.5074,-6.5106,-6.5089,-6.5162,-6.5093,-6.51,-6.5088,-6.5084,-6.5088,-6.5175,-6.5178,-6.5179,-6.5181,0,-6.4913,-6.4903,-6.4937,-6.4969,-6.4997,-6.502,-6.504,-6.5063,-6.5037,-6.5066,-6.5108,-6.513,-6.5173,-6.521,-6.5238,-6.5242,-6.5207,-6.5203,-6.5218,-6.5227,-6.5231,-6.5228,-6.5008,-6.5198,-6.5196,-6.5195,-6.5194,-6.5193,-6.5041,-6.5082,-6.5095,-6.5134,-6.5146,-6.5166,-6.5202,-6.5198,-6.5233,-6.5266,-6.5249,-6.5297,-6.5308,-6.5342,-6.535,-6.5386,-6.5357,-6.538,-6.5386,-6.5392,-6.5399,-6.5227,-6.5392,-6.5391,-6.5391,-6.539,-6.539,0,-6.5212,-6.5218,-6.5254,-6.5283,-6.5313,-6.5279,-6.5299,-6.5326,-6.5369,-6.5383,-6.5412,-6.5459,-6.5494,-6.549,-6.5522,-6.5552,-6.5536,-6.5561,-6.5557,-6.5558,-6.5424,-6.5407,-6.5573,-6.5573,-6.5572,-6.5572,-6.5572,-6.5572,-6.5304,-6.5372,-6.5364,-6.5436,-6.544,-6.5488,-6.5502,-6.5519,-6.553,-6.5584,-6.5613,-6.5611,-6.5617,-6.5649,-6.5679,-6.5677,-6.569,-6.572,-6.5712,-6.5586,-6.5568,-6.5551,-6.5534,-6.5724,-6.5724,-6.5842,-6.5844,-6.5844]}]]